Location: Newark
(52.8300°N, 8.0000°E)
Time: 14:00:59
(UTC+00:00)

STARLINK-1085 - Pass Details

Date: 01 February 2020
Orbit: 349 x 350 km, 53.0° (Epoch: 17 February)

Event Time Altitude Azimuth Distance (km) Brightness Sun altitude
Rises 17:22:48 0° 282° (WNW) 2,167 7.9 -10.8°
Reaches altitude 10° 17:25:05 10° 266° (W) 1,321 7.1 -11.1°
Maximum altitude 17:27:24 21° 214° (SW) 855 5.2 -11.5°
Drops below altitude 10° 17:29:43 10° 162° (SSE) 1,315 5.5 -11.8°
Enters shadow 17:31:58 - 145° (SE) 2,147 6.4 -12.1°
